Weather Roundup
Issued by NWS

Home | Current Version | Previous Version | Graphics & Text | Print | Product List | Glossary Off
Versions: 1 2 3 4 5 6 7 8 9 10 11 12 13 14 15 16 17 18 19 20 21 22 23 24 25 26 27 28 29 30 31 32 33 34 35 36 37 38 39 40 41 42 43 44 45 46 47 48 49 50

000
NZUS93 KARX 020459
HRRWXR

CURRENT HOURLY OBSERVATIONS ACROSS
MUCH OF THE UPPER MISSISSIPPI VALLEY
NATIONAL WEATHER SERVICE LA CROSSE WI
1200 AM CDT MON MAY 02 2016


...SOUTHEAST MINNESOTA...


CITY           SKY/WX    TMP DP  RH WIND       PRES   REMARKS
ROCHESTER      PTCLDY    45  42  89 W9        30.10S
ROCHESTER/MAYO FAIR      49  41  73 W5        30.10S
WINONA         MOCLDY    48  43  81 NW3       30.11R
AUSTIN         CLEAR     43  39  87 CALM      30.11R
ALBERT LEA     NOT AVBL
DODGE CENTER   PTCLDY    39  37  93 W6        30.10S WCI  35
PRESTON        PTCLDY    43  39  85 NW6       30.10R
OWATONNA       CLEAR     45  39  81 SW3       30.11S
FARIBAULT      NOT AVBL
$$

...ELSEWHERE IN MINNESOTA...


CITY           SKY/WX    TMP DP  RH WIND       PRES   REMARKS
MINNEAPOLIS    CLEAR     52  35  52 N10       30.11S
INTNL FALLS    CLEAR     31  29  92 CALM      30.12F
DULUTH         CLEAR     39  31  72 E3        30.14S
RED WING       CLEAR     54  34  47 NE6       30.09R
REDWOOD FALLS  CLEAR     49  32  52 CALM      30.14R
MANKATO        CLEAR     48  36  61 NW6       30.12R
WORTHINGTON    CLEAR     40  37  89 W6        30.16S
FAIRMONT       MOCLDY    46  36  66 NW5       30.13R
$$

...SOUTHWEST WISCONSIN...


CITY           SKY/WX    TMP DP  RH WIND       PRES   REMARKS
LA CROSSE      PTCLDY    43  40  89 CALM      30.09R
PRAIRIE DU CHI FOG       44  42  95 CALM      30.09R VSB 1/2
BOSCOBEL       FOG       39  38  96 CALM      30.09R VSB<1/4
LONE ROCK      NOT AVBL
PLATTEVILLE    CLOUDY    47  44  90 N5        30.06R
FORT MC COY    CLEAR     37  34  89 CALM      30.10R
MAUSTON-NEW LI CLEAR     40  36  84 CALM      30.08R
VIROQUA        FAIR      44  44 100 CALM      30.08R VSB 3/4
WIS DELLS      CLEAR     45  38  78 NE6       30.07S
$$

...ELSEWHERE IN WISCONSIN...


CITY           SKY/WX    TMP DP  RH WIND       PRES   REMARKS
MILWAUKEE      LGT RAIN  44  42  93 NE10      30.04F
MADISON        CLOUDY    48  42  80 NE13      30.06R
GREEN BAY      PTCLDY    43  38  82 N5        30.09S
EAU CLAIRE     NOT AVBL
BLACK RVR FLS  FAIR      34  34 100 CALM      30.09R
MEDFORD        CLEAR     46  33  60 SE5       30.10R
WAUSAU         CLEAR     46  34  62 N3        30.09R
WIS RAPIDS     CLEAR     41  33  73 CALM      30.11R
MARSHFIELD     PTCLDY    45  33  63 CALM      30.10R
RICE LAKE      CLEAR     46  34  62 N9        30.12F
$$

...NORTHEAST IOWA...


CITY           SKY/WX    TMP DP  RH WIND       PRES   REMARKS
WATERLOO       CLOUDY    45  43  93 NW5       30.10R
DUBUQUE        CLOUDY    47  43  86 NE7       30.06R
DECORAH        PTCLDY    45  45 100 CALM      30.08S FOG
MASON CITY     CLOUDY    44  42  93 W6        30.13R
CHARLES CITY   CLOUDY    45  45 100 W3        30.11R
OELWEIN        CLOUDY    45  45 100 N5        30.10S
$$

...ELSEWHERE IN IOWA...


CITY           SKY/WX    TMP DP  RH WIND       PRES   REMARKS
DES MOINES     MOCLDY    49  44  83 N7        30.11F
IOWA CITY      CLOUDY    48  46  93 NW7       30.08R
FORT DODGE     CLOUDY    46  41  81 CALM      30.14S
MARSHALLTOWN   CLOUDY    46  44  93 W5        30.11R
CEDAR RAPIDS   CLOUDY    47  46  97 N6        30.06S
$$

...NORTHERN ILLINOIS...


CITY           SKY/WX    TMP DP  RH WIND       PRES   REMARKS
CHICAGO-OHARE  CLOUDY    45  43  93 NE14      29.99F
CHICAGO-MIDWAY CLOUDY    47  44  90 NE17      29.97F
MOLINE         CLOUDY    50  47  89 CALM      30.03R
ROCKFORD       DRIZZLE   48  46  93 N8        30.05R
PEORIA         CLOUDY    49  46  90 N6        30.02R
$$

NOTE: "FAIR" INDICATES FEW OR NO CLOUDS BELOW 12,000 FEET WITH NO
SIGNIFICANT WEATHER AND/OR OBSTRUCTIONS TO VISIBILITY. WIND
SPEEDS ARE IN MILES-PER-HOUR.




USA.gov is the U.S. government's official web portal to all federal, state and local government web resources and services.